Regional Weather Roundup
Issued by NWS

Home | Current Version | Previous Version | Text Only | Print | Product List | Glossary Off
Versions: 1 2 3 4 5 6 7 8 9 10 11 12 13 14 15 16 17 18 19 20 21 22 23 24 25 26 27 28 29 30 31 32 33 34 35 36 37 38 39 40 41 42 43 44 45 46 47 48 49 50

000
ASUS43 KLSX 050110
RWRMO

WEATHER SUMMARY FOR MISSOURI
NATIONAL WEATHER SERVICE SPRINGFIELD MO
800 PM CDT TUE AUG 04 2015

NOTE: "FAIR" INDICATES FEW OR NO CLOUDS BELOW 12,000 FEET WITH NO
       SIGNIFICANT WEATHER AND/OR OBSTRUCTIONS TO VISIBILITY.
       CURRENT SKY AND/OR WEATHER CONDITIONS ARE NOT AVAILABLE FOR
       CHILLICOTHE AND FARMINGTON.

MOZ001>031-035>038-043-044-053-054-050200-
...NORTHERN AND WESTERN MISSOURI...

CITY           SKY/WX    TMP DP  RH WIND       PRES   REMARKS
KANSAS CTY INT LGT RAIN  71  70  96 S6        29.98F
KANSAS C DTWN  LGT RAIN  72  70  93 S7        29.97F
LEE`S SUMMIT   LGT RAIN  70  68  93 S10       30.00F
ST JOSEPH      CLOUDY    71  68  90 S5        29.97F
CHILLICOTHE      N/A     78  70  76 CALM      30.00R
KIRKSVILLE     CLOUDY    74  68  81 NE6       30.00R

$$
MOZ066>068-077>081-088>096-101>105-050200-
...SOUTHWEST MISSOURI...

CITY           SKY/WX    TMP DP  RH WIND       PRES   REMARKS
SPRINGFIELD    CLOUDY    79  71  76 SE3       30.00R
JOPLIN         CLOUDY    79  70  74 E9        29.96F

$$
MOZ032>034-039>042-045>050-055>058-069>072-050200-
...CENTRAL MISSOURI...

CITY           SKY/WX    TMP DP  RH WIND       PRES   REMARKS
COLUMBIA       CLOUDY    78  74  87 E3        29.97F
JEFFERSON CITY CLOUDY    80  74  81 CALM      29.95F
ROLLA          CLOUDY    73  62  68 SW14G23   30.00R
SEDALIA        TSTM      70  65  84 N7        30.02R
WHITEMAN AFB   RAIN      71  69  90 NW8       29.99R FOG
WARRENSBURG    LGT RAIN  70  66  88 NE5       30.00S
OSAGE BEACH    CLOUDY    79  63  57 W9        30.01R THUNDER

$$
MOZ051-052-059>065-050200-
...EAST CENTRAL MISSOURI...

CITY           SKY/WX    TMP DP  RH WIND       PRES   REMARKS
ST LOUIS INTL  CLOUDY    84  70  62 E8        29.97R
SPIRIT OF STL  CLOUDY    80  75  84 CALM      29.95R
ST CHARLES     CLOUDY    81  73  76 NE6       29.96R

$$
MOZ072>076-082>087-097>100-106>115-050200-
...SOUTH CENTRAL AND SOUTHEAST MISSOURI...

CITY           SKY/WX    TMP DP  RH WIND       PRES   REMARKS
CAPE GIRARDEAU CLOUDY    83  76  79 S3        29.95R HX  91
FARMINGTON     CLOUDY    79  70  73 CALM      30.03R
POPLAR BLUFF   CLOUDY    84  77  79 S3        29.94R HX  94
WEST PLAINS    CLOUDY    82  73  74 N5        30.01R

$$



USA.gov is the U.S. government's official web portal to all federal, state and local government web resources and services.